Time,TemperatureF,DewpointF,PressureIn,WindDirection,WindDirectionDegrees,WindSpeedMPH,WindSpeedGustMPH,Humidity,HourlyPrecipIn,Conditions,Clouds,dailyrainin,SoftwareType,DateUTC
2013-01-20 00:00:00,36.0,25.4,29.62,NNW,338,14.5,29.3,65,0.00,,CLR,0.00,VWS V14.01,2013-01-20 05:00:00,
2013-01-20 00:01:00,42.6,25.3,29.56,WSW,248,11.0,25.7,50,0.00,,CLR,0.00,VWS V14.01,2013-01-20 05:01:00,
2013-01-20 00:03:00,42.4,24.6,29.56,WSW,248,8.7,25.7,49,0.00,,CLR,0.00,VWS V14.01,2013-01-20 05:03:00,
2013-01-20 00:07:00,42.3,25.0,29.56,WSW,248,13.2,25.7,50,0.00,,CLR,0.00,VWS V14.01,2013-01-20 05:07:00,
2013-01-20 00:12:00,42.1,24.8,29.56,West,270,11.9,13.2,50,0.00,,CLR,0.00,VWS V14.01,2013-01-20 05:12:00,
2013-01-20 00:17:00,42.1,23.3,29.59,WSW,248,15.2,29.3,47,0.00,,CLR,0.00,VWS V14.01,2013-01-20 05:17:00,
2013-01-20 00:20:00,41.9,23.7,29.59,West,270,13.6,29.3,48,0.00,,CLR,0.00,VWS V14.01,2013-01-20 05:20:00,
2013-01-20 00:25:00,41.5,22.3,29.59,West,270,14.8,29.3,46,0.00,,CLR,0.00,VWS V14.01,2013-01-20 05:25:00,
2013-01-20 00:30:00,41.2,23.0,29.59,WNW,292,8.5,29.3,48,0.00,,CLR,0.00,VWS V14.01,2013-01-20 05:30:00,
2013-01-20 00:35:00,38.3,24.8,29.59,NW,315,9.8,29.3,58,0.00,,CLR,0.00,VWS V14.01,2013-01-20 05:35:00,
2013-01-20 00:41:00,37.2,26.2,29.59,WSW,248,9.8,29.3,64,0.00,,CLR,0.00,VWS V14.01,2013-01-20 05:41:00,
2013-01-20 00:46:00,36.7,26.8,29.59,NW,315,5.4,29.3,67,0.00,,CLR,0.00,VWS V14.01,2013-01-20 05:46:00,
2013-01-20 00:51:00,36.1,27.0,29.59,West,270,5.6,29.3,69,0.00,,CLR,0.00,VWS V14.01,2013-01-20 05:51:00,
2013-01-20 00:56:00,36.0,27.5,29.59,WSW,248,4.3,29.3,71,0.00,,CLR,0.00,VWS V14.01,2013-01-20 05:56:00,
2013-01-20 01:00:00,31.1,12.2,29.68,WSW,248,7.6,29.5,45,0.00,,CLR,0.00,VWS V14.01,2013-01-20 06:00:00,
2013-01-20 01:01:00,36.3,26.4,29.62,West,270,8.5,29.3,67,0.00,,CLR,0.00,VWS V14.01,2013-01-20 06:01:00,
2013-01-20 01:06:00,36.0,25.4,29.62,North,0,13.0,29.3,65,0.00,,CLR,0.00,VWS V14.01,2013-01-20 06:06:00,
2013-01-20 01:11:00,35.4,26.6,29.62,WSW,248,21.9,21.9,70,0.00,,CLR,0.00,VWS V14.01,2013-01-20 06:11:00,
2013-01-20 01:16:00,35.4,24.1,29.62,WSW,248,21.9,29.5,63,0.00,,CLR,0.00,VWS V14.01,2013-01-20 06:16:00,
2013-01-20 01:21:00,35.6,22.3,29.62,WNW,292,12.5,29.5,58,0.00,,CLR,0.00,VWS V14.01,2013-01-20 06:21:00,
2013-01-20 01:26:00,36.3,21.3,29.62,WNW,292,6.0,29.5,54,0.00,,CLR,0.00,VWS V14.01,2013-01-20 06:26:00,
2013-01-20 01:31:00,36.3,20.4,29.59,WSW,248,10.5,29.5,52,0.00,,CLR,0.00,VWS V14.01,2013-01-20 06:31:00,
2013-01-20 01:36:00,36.7,17.9,29.59,West,270,9.8,29.5,46,0.00,,CLR,0.00,VWS V14.01,2013-01-20 06:36:00,
2013-01-20 01:41:00,36.5,17.7,29.59,West,270,9.0,29.5,46,0.00,,CLR,0.00,VWS V14.01,2013-01-20 06:41:00,
2013-01-20 01:46:00,34.7,18.0,29.65,West,270,10.1,29.5,50,0.00,,CLR,0.00,VWS V14.01,2013-01-20 06:46:00,
2013-01-20 01:51:00,33.3,17.1,29.65,NW,315,10.5,29.5,51,0.00,,CLR,0.00,VWS V14.01,2013-01-20 06:51:00,
2013-01-20 01:56:00,32.5,16.4,29.65,WSW,248,23.7,29.5,51,0.00,,CLR,0.00,VWS V14.01,2013-01-20 06:56:00,
2013-01-20 02:00:00,26.4,10.8,29.76,WNW,292,9.0,26.6,51,0.00,,CLR,0.00,VWS V14.01,2013-01-20 07:00:00,
2013-01-20 02:02:00,31.8,13.9,29.68,WSW,248,12.8,29.5,47,0.00,,CLR,0.00,VWS V14.01,2013-01-20 07:02:00,
2013-01-20 02:07:00,31.1,12.2,29.68,NW,315,14.8,29.5,45,0.00,,CLR,0.00,VWS V14.01,2013-01-20 07:07:00,
2013-01-20 02:12:00,30.4,13.5,29.68,SW,225,4.3,13.0,49,0.00,,CLR,0.00,VWS V14.01,2013-01-20 07:12:00,
2013-01-20 02:17:00,30.0,11.8,29.71,WNW,292,18.6,23.3,46,0.00,,CLR,0.00,VWS V14.01,2013-01-20 07:17:00,
2013-01-20 02:22:00,29.7,12.4,29.71,WNW,292,10.7,23.7,48,0.00,,CLR,0.00,VWS V14.01,2013-01-20 07:22:00,
2013-01-20 02:27:00,28.9,10.8,29.71,WNW,292,12.5,23.7,46,0.00,,CLR,0.00,VWS V14.01,2013-01-20 07:27:00,
2013-01-20 02:32:00,28.2,9.1,29.74,West,270,17.5,24.2,44,0.00,,CLR,0.00,VWS V14.01,2013-01-20 07:32:00,
2013-01-20 02:37:00,27.7,9.1,29.74,WSW,248,10.5,26.6,45,0.00,,CLR,0.00,VWS V14.01,2013-01-20 07:37:00,
2013-01-20 02:42:00,27.3,8.3,29.74,West,270,11.0,26.6,44,0.00,,CLR,0.00,VWS V14.01,2013-01-20 07:42:00,
2013-01-20 02:47:00,27.0,9.4,29.74,WNW,292,7.4,26.6,47,0.00,,CLR,0.00,VWS V14.01,2013-01-20 07:47:00,
2013-01-20 02:52:00,27.0,9.4,29.74,WSW,248,14.1,26.6,47,0.00,,CLR,0.00,VWS V14.01,2013-01-20 07:52:00,
2013-01-20 02:57:00,27.0,11.3,29.74,West,270,6.0,26.6,51,0.00,,CLR,0.00,VWS V14.01,2013-01-20 07:57:00,
2013-01-20 03:00:00,24.3,10.0,29.85,NW,315,5.6,26.0,54,0.00,,CLR,0.00,VWS V14.01,2013-01-20 08:00:00,
2013-01-20 03:02:00,26.6,10.5,29.76,WNW,292,9.6,26.6,50,0.00,,CLR,0.00,VWS V14.01,2013-01-20 08:02:00,
2013-01-20 03:07:00,26.4,11.2,29.76,NNW,338,8.5,9.0,52,0.00,,CLR,0.00,VWS V14.01,2013-01-20 08:07:00,
2013-01-20 03:12:00,26.2,11.4,29.76,West,270,12.1,12.3,53,0.00,,CLR,0.00,VWS V14.01,2013-01-20 08:12:00,
2013-01-20 03:17:00,26.1,11.3,29.76,NW,315,5.6,26.0,53,0.00,,CLR,0.00,VWS V14.01,2013-01-20 08:17:00,
2013-01-20 03:22:00,25.7,10.9,29.76,WNW,292,10.3,26.0,53,0.00,,CLR,0.00,VWS V14.01,2013-01-20 08:22:00,
2013-01-20 03:27:00,25.3,9.8,29.76,West,270,14.5,26.0,51,0.00,,CLR,0.00,VWS V14.01,2013-01-20 08:27:00,
2013-01-20 03:33:00,25.3,10.2,29.82,NW,315,12.3,26.0,52,0.00,,CLR,0.00,VWS V14.01,2013-01-20 08:33:00,
2013-01-20 03:38:00,25.2,10.9,29.82,WNW,292,9.6,26.0,54,0.00,,CLR,0.00,VWS V14.01,2013-01-20 08:38:00,
2013-01-20 03:43:00,25.0,11.1,29.82,WSW,248,16.8,26.0,55,0.00,,CLR,0.00,VWS V14.01,2013-01-20 08:43:00,
2013-01-20 03:48:00,24.6,10.8,29.82,WSW,248,10.1,26.0,55,0.00,,CLR,0.00,VWS V14.01,2013-01-20 08:48:00,
2013-01-20 03:53:00,24.4,10.6,29.82,NNW,338,8.1,26.0,55,0.00,,CLR,0.00,VWS V14.01,2013-01-20 08:53:00,
2013-01-20 03:58:00,24.3,9.6,29.82,WSW,248,10.1,26.0,53,0.00,,CLR,0.00,VWS V14.01,2013-01-20 08:58:00,
2013-01-20 04:00:00,21.9,7.4,29.91,NW,315,10.1,24.6,53,0.00,,CLR,0.00,VWS V14.01,2013-01-20 09:00:00,
2013-01-20 04:03:00,24.3,10.0,29.85,North,0,13.9,26.0,54,0.00,,CLR,0.00,VWS V14.01,2013-01-20 09:03:00,
2013-01-20 04:08:00,24.3,10.8,29.85,WSW,248,4.3,10.1,56,0.00,,CLR,0.00,VWS V14.01,2013-01-20 09:08:00,
2013-01-20 04:13:00,23.9,9.7,29.85,WNW,292,4.3,15.2,54,0.00,,CLR,0.00,VWS V14.01,2013-01-20 09:13:00,
2013-01-20 04:18:00,23.7,9.1,29.85,WSW,248,10.3,15.2,53,0.00,,CLR,0.00,VWS V14.01,2013-01-20 09:18:00,
2013-01-20 04:23:00,23.5,8.5,29.85,WNW,292,10.3,15.2,52,0.00,,CLR,0.00,VWS V14.01,2013-01-20 09:23:00,
2013-01-20 04:28:00,23.2,8.6,29.85,WSW,248,24.6,24.6,53,0.00,,CLR,0.00,VWS V14.01,2013-01-20 09:28:00,
2013-01-20 04:33:00,23.0,8.4,29.88,WSW,248,9.0,24.6,53,0.00,,CLR,0.00,VWS V14.01,2013-01-20 09:33:00,
2013-01-20 04:38:00,22.8,7.8,29.88,NNW,338,8.1,24.6,52,0.00,,CLR,0.00,VWS V14.01,2013-01-20 09:38:00,
2013-01-20 04:43:00,22.6,8.5,29.88,WNW,292,10.1,24.6,54,0.00,,CLR,0.00,VWS V14.01,2013-01-20 09:43:00,
2013-01-20 04:48:00,22.6,8.5,29.88,WNW,292,6.5,24.6,54,0.00,,CLR,0.00,VWS V14.01,2013-01-20 09:48:00,
2013-01-20 04:53:00,22.3,8.2,29.88,NNW,338,10.7,24.6,54,0.00,,CLR,0.00,VWS V14.01,2013-01-20 09:53:00,
2013-01-20 04:58:00,22.1,7.6,29.88,NNW,338,10.3,24.6,53,0.00,,CLR,0.00,VWS V14.01,2013-01-20 09:58:00,
2013-01-20 05:00:00,19.4,2.9,29.97,WNW,292,10.5,26.4,48,0.00,,CLR,0.00,VWS V14.01,2013-01-20 10:00:00,
2013-01-20 05:03:00,21.9,7.4,29.91,NNW,338,9.4,24.6,53,0.00,,CLR,0.00,VWS V14.01,2013-01-20 10:03:00,
2013-01-20 05:08:00,21.9,7.8,29.91,NW,315,11.0,11.0,54,0.00,,CLR,0.00,VWS V14.01,2013-01-20 10:08:00,
2013-01-20 05:13:00,21.6,7.1,29.91,NW,315,11.9,11.9,53,0.00,,CLR,0.00,VWS V14.01,2013-01-20 10:13:00,
2013-01-20 05:18:00,21.4,6.1,29.88,WSW,248,11.0,26.4,51,0.00,,CLR,0.00,VWS V14.01,2013-01-20 10:18:00,
2013-01-20 05:24:00,21.2,6.3,29.88,NW,315,10.3,26.4,52,0.00,,CLR,0.00,VWS V14.01,2013-01-20 10:24:00,
2013-01-20 05:29:00,20.8,5.1,29.88,WSW,248,9.6,26.4,50,0.00,,CLR,0.00,VWS V14.01,2013-01-20 10:29:00,
2013-01-20 05:34:00,20.5,3.9,29.91,West,270,8.5,26.4,48,0.00,,CLR,0.00,VWS V14.01,2013-01-20 10:34:00,
2013-01-20 05:39:00,20.3,3.3,29.91,West,270,9.6,26.4,47,0.00,,CLR,0.00,VWS V14.01,2013-01-20 10:39:00,
2013-01-20 05:44:00,20.1,3.6,29.91,WNW,292,11.0,26.4,48,0.00,,CLR,0.00,VWS V14.01,2013-01-20 10:44:00,
2013-01-20 05:49:00,19.8,3.7,29.94,WNW,292,10.7,26.4,49,0.00,,CLR,0.00,VWS V14.01,2013-01-20 10:49:00,
2013-01-20 05:54:00,19.6,3.1,29.94,WNW,292,8.1,26.4,48,0.00,,CLR,0.00,VWS V14.01,2013-01-20 10:54:00,
2013-01-20 05:59:00,19.4,2.9,29.94,WNW,292,9.6,26.4,48,0.00,,CLR,0.00,VWS V14.01,2013-01-20 10:59:00,
2013-01-20 06:00:00,16.5,6.8,30.03,NW,315,12.5,22.6,65,0.00,,CLR,0.00,VWS V14.01,2013-01-20 11:00:00,
2013-01-20 06:04:00,19.4,3.4,29.97,NNW,338,7.4,26.4,49,0.00,,CLR,0.00,VWS V14.01,2013-01-20 11:04:00,
2013-01-20 06:09:00,19.4,2.9,29.97,NW,315,10.3,10.5,48,0.00,,CLR,0.00,VWS V14.01,2013-01-20 11:09:00,
2013-01-20 06:14:00,19.0,4.3,29.97,WNW,292,8.7,12.1,52,0.00,,CLR,0.00,VWS V14.01,2013-01-20 11:14:00,
2013-01-20 06:19:00,18.5,2.1,29.97,NNW,338,10.1,16.8,48,0.00,,CLR,0.00,VWS V14.01,2013-01-20 11:19:00,
2013-01-20 06:24:00,18.3,2.4,29.97,NNW,338,14.1,16.8,49,0.00,,CLR,0.00,VWS V14.01,2013-01-20 11:24:00,
2013-01-20 06:29:00,18.1,3.5,29.97,WSW,248,13.6,22.6,52,0.00,,CLR,0.00,VWS V14.01,2013-01-20 11:29:00,
2013-01-20 06:34:00,18.0,2.5,30.00,WNW,292,10.3,22.6,50,0.00,,CLR,0.00,VWS V14.01,2013-01-20 11:34:00,
2013-01-20 06:39:00,17.8,3.2,30.00,NW,315,7.4,22.6,52,0.00,,CLR,0.00,VWS V14.01,2013-01-20 11:39:00,
2013-01-20 06:44:00,17.8,5.9,30.00,WNW,292,14.5,22.6,59,0.00,,CLR,0.00,VWS V14.01,2013-01-20 11:44:00,
2013-01-20 06:49:00,17.4,5.9,30.03,WSW,248,6.3,22.6,60,0.00,,CLR,0.00,VWS V14.01,2013-01-20 11:49:00,
2013-01-20 06:55:00,17.1,5.9,30.03,WNW,292,8.5,22.6,61,0.00,,CLR,0.00,VWS V14.01,2013-01-20 11:55:00,
2013-01-20 07:00:00,16.9,5.4,30.03,NNW,338,8.5,22.6,60,0.00,,CLR,0.00,VWS V14.01,2013-01-20 12:00:00,
2013-01-20 07:05:00,16.5,6.1,30.03,WNW,292,6.5,22.6,63,0.00,,CLR,0.00,VWS V14.01,2013-01-20 12:05:00,
2013-01-20 07:10:00,16.3,4.2,30.03,NNW,338,10.3,12.5,58,0.00,,CLR,0.00,VWS V14.01,2013-01-20 12:10:00,
2013-01-20 07:15:00,16.3,2.6,30.03,WNW,292,5.8,12.5,54,0.00,,CLR,0.00,VWS V14.01,2013-01-20 12:15:00,
2013-01-20 07:20:00,16.2,2.0,30.06,NW,315,11.0,13.0,53,0.00,,CLR,0.00,VWS V14.01,2013-01-20 12:20:00,
2013-01-20 07:25:00,16.2,1.6,30.06,West,270,6.3,17.5,52,0.00,,CLR,0.00,VWS V14.01,2013-01-20 12:25:00,
2013-01-20 07:30:00,16.2,0.4,30.09,NW,315,8.1,17.5,49,0.00,,CLR,0.00,VWS V14.01,2013-01-20 12:30:00,
2013-01-20 07:35:00,16.0,0.2,30.09,NW,315,7.2,17.5,49,0.00,,CLR,0.00,VWS V14.01,2013-01-20 12:35:00,
2013-01-20 07:40:00,16.0,1.1,30.09,WSW,248,6.5,17.5,51,0.00,,CLR,0.00,VWS V14.01,2013-01-20 12:40:00,
2013-01-20 07:45:00,16.0,1.1,30.06,NW,315,10.3,17.5,51,0.00,,CLR,0.00,VWS V14.01,2013-01-20 12:45:00,
2013-01-20 07:50:00,15.8,1.3,30.06,WNW,292,5.6,17.5,52,0.00,,CLR,0.00,VWS V14.01,2013-01-20 12:50:00,
2013-01-20 07:55:00,15.4,1.4,30.06,WNW,292,8.1,17.5,53,0.00,,CLR,0.00,VWS V14.01,2013-01-20 12:55:00,
2013-01-20 08:00:00,15.4,0.6,30.09,West,270,3.8,17.5,51,0.00,,CLR,0.00,VWS V14.01,2013-01-20 13:00:00,
2013-01-20 08:05:00,15.4,1.0,30.09,WSW,248,4.3,17.5,52,0.00,,CLR,0.00,VWS V14.01,2013-01-20 13:05:00,
2013-01-20 08:10:00,15.3,1.6,30.09,WNW,292,7.6,10.7,54,0.00,,CLR,0.00,VWS V14.01,2013-01-20 13:10:00,
2013-01-20 08:16:00,15.4,0.6,30.12,WNW,292,4.3,10.7,51,0.00,,CLR,0.00,VWS V14.01,2013-01-20 13:16:00,
2013-01-20 08:21:00,15.8,0.5,30.12,NW,315,6.3,10.7,50,0.00,,CLR,0.00,VWS V14.01,2013-01-20 13:21:00,
2013-01-20 08:26:00,16.5,0.7,30.12,WSW,248,6.3,14.8,49,0.00,,CLR,0.00,VWS V14.01,2013-01-20 13:26:00,
2013-01-20 08:31:00,17.1,0.3,30.12,WNW,292,5.4,14.8,47,0.00,,CLR,0.00,VWS V14.01,2013-01-20 13:31:00,
2013-01-20 08:36:00,17.8,0.5,30.12,NW,315,6.5,14.8,46,0.00,,CLR,0.00,VWS V14.01,2013-01-20 13:36:00,
2013-01-20 08:41:00,18.5,1.2,30.12,West,270,5.4,14.8,46,0.00,,CLR,0.00,VWS V14.01,2013-01-20 13:41:00,
2013-01-20 08:46:00,18.7,0.9,30.15,West,270,6.5,14.8,45,0.00,,CLR,0.00,VWS V14.01,2013-01-20 13:46:00,
2013-01-20 08:51:00,19.0,1.2,30.15,WNW,292,5.8,14.8,45,0.00,,CLR,0.00,VWS V14.01,2013-01-20 13:51:00,
2013-01-20 08:56:00,19.8,1.9,30.15,WSW,248,10.5,14.8,45,0.00,,CLR,0.00,VWS V14.01,2013-01-20 13:56:00,
2013-01-20 09:00:00,20.8,2.9,30.18,NW,315,4.9,21.9,45,0.00,,CLR,0.00,VWS V14.01,2013-01-20 14:00:00,
2013-01-20 09:01:00,19.8,1.4,30.15,West,270,6.0,14.8,44,0.00,,CLR,0.00,VWS V14.01,2013-01-20 14:01:00,
2013-01-20 09:06:00,19.8,1.4,30.15,SW,225,3.8,14.8,44,0.00,,CLR,0.00,VWS V14.01,2013-01-20 14:06:00,
2013-01-20 09:11:00,19.9,1.5,30.15,WNW,292,3.6,8.7,44,0.00,,CLR,0.00,VWS V14.01,2013-01-20 14:11:00,
2013-01-20 09:16:00,20.3,1.9,30.15,WNW,292,5.4,21.9,44,0.00,,CLR,0.00,VWS V14.01,2013-01-20 14:16:00,
2013-01-20 09:21:00,19.6,1.2,30.15,WNW,292,5.8,21.9,44,0.00,,CLR,0.00,VWS V14.01,2013-01-20 14:21:00,
2013-01-20 09:27:00,20.5,2.5,30.15,NW,315,7.6,21.9,45,0.00,,CLR,0.00,VWS V14.01,2013-01-20 14:27:00,
2013-01-20 09:32:00,19.9,1.5,30.15,WNW,292,12.3,21.9,44,0.00,,CLR,0.00,VWS V14.01,2013-01-20 14:32:00,
2013-01-20 09:37:00,20.7,2.7,30.15,SW,225,4.7,21.9,45,0.00,,CLR,0.00,VWS V14.01,2013-01-20 14:37:00,
2013-01-20 09:42:00,21.0,3.0,30.15,WNW,292,3.8,21.9,45,0.00,,CLR,0.00,VWS V14.01,2013-01-20 14:42:00,
2013-01-20 09:47:00,20.3,1.9,30.18,NW,315,6.3,21.9,44,0.00,,CLR,0.00,VWS V14.01,2013-01-20 14:47:00,
2013-01-20 09:52:00,20.7,2.2,30.18,NW,315,8.1,21.9,44,0.00,,CLR,0.00,VWS V14.01,2013-01-20 14:52:00,
2013-01-20 09:57:00,20.3,2.4,30.18,WNW,292,3.8,21.9,45,0.00,,CLR,0.00,VWS V14.01,2013-01-20 14:57:00,
2013-01-20 10:00:00,21.6,2.5,30.21,NW,315,6.5,17.7,43,0.00,,CLR,0.00,VWS V14.01,2013-01-20 15:00:00,
2013-01-20 10:02:00,21.4,3.3,30.18,WNW,292,5.6,21.9,45,0.00,,CLR,0.00,VWS V14.01,2013-01-20 15:02:00,
2013-01-20 10:07:00,20.8,2.9,30.18,NW,315,6.3,6.3,45,0.00,,CLR,0.00,VWS V14.01,2013-01-20 15:07:00,
2013-01-20 10:12:00,21.4,2.9,30.18,North,0,5.8,9.2,44,0.00,,CLR,0.00,VWS V14.01,2013-01-20 15:12:00,
2013-01-20 10:17:00,21.0,2.0,30.18,WNW,292,5.6,15.9,43,0.00,,CLR,0.00,VWS V14.01,2013-01-20 15:17:00,
2013-01-20 10:22:00,21.4,2.4,30.18,North,0,11.0,15.9,43,0.00,,CLR,0.00,VWS V14.01,2013-01-20 15:22:00,
2013-01-20 10:27:00,21.4,2.4,30.18,NW,315,4.0,15.9,43,0.00,,CLR,0.00,VWS V14.01,2013-01-20 15:27:00,
2013-01-20 10:32:00,21.2,2.7,30.21,NNW,338,6.5,17.7,44,0.00,,CLR,0.00,VWS V14.01,2013-01-20 15:32:00,
2013-01-20 10:37:00,20.5,2.0,30.21,WNW,292,4.0,17.7,44,0.00,,CLR,0.00,VWS V14.01,2013-01-20 15:37:00,
2013-01-20 10:42:00,21.0,2.5,30.21,NW,315,7.8,17.7,44,0.00,,CLR,0.00,VWS V14.01,2013-01-20 15:42:00,
2013-01-20 10:47:00,20.7,2.2,30.21,NNW,338,7.8,17.7,44,0.00,,CLR,0.00,VWS V14.01,2013-01-20 15:47:00,
2013-01-20 10:52:00,21.2,2.7,30.21,WNW,292,5.8,17.7,44,0.00,,CLR,0.00,VWS V14.01,2013-01-20 15:52:00,
2013-01-20 10:57:00,21.2,2.7,30.21,WNW,292,10.1,17.7,44,0.00,,CLR,0.00,VWS V14.01,2013-01-20 15:57:00,
2013-01-20 11:00:00,20.1,3.1,30.21,WNW,292,3.8,15.7,47,0.00,,CLR,0.00,VWS V14.01,2013-01-20 16:00:00,
2013-01-20 11:03:00,21.2,2.2,30.21,WNW,292,10.5,17.7,43,0.00,,CLR,0.00,VWS V14.01,2013-01-20 16:03:00,
2013-01-20 11:08:00,21.9,2.9,30.21,NW,315,7.6,8.7,43,0.00,,CLR,0.00,VWS V14.01,2013-01-20 16:08:00,
2013-01-20 11:13:00,21.6,2.0,30.21,NW,315,6.0,9.8,42,0.00,,CLR,0.00,VWS V14.01,2013-01-20 16:13:00,
2013-01-20 11:18:00,21.4,2.4,30.21,NNW,338,7.4,9.8,43,0.00,,CLR,0.00,VWS V14.01,2013-01-20 16:18:00,
2013-01-20 11:23:00,21.6,2.5,30.21,WNW,292,6.3,9.8,43,0.00,,CLR,0.00,VWS V14.01,2013-01-20 16:23:00,
2013-01-20 11:28:00,21.0,2.0,30.21,WSW,248,5.4,15.7,43,0.00,,CLR,0.00,VWS V14.01,2013-01-20 16:28:00,
2013-01-20 11:33:00,21.2,2.2,30.18,WNW,292,3.4,15.7,43,0.00,,CLR,0.00,VWS V14.01,2013-01-20 16:33:00,
2013-01-20 11:38:00,21.2,2.2,30.18,WSW,248,6.5,15.7,43,0.00,,CLR,0.00,VWS V14.01,2013-01-20 16:38:00,
2013-01-20 11:43:00,20.8,1.9,30.18,NNW,338,7.2,15.7,43,0.00,,CLR,0.00,VWS V14.01,2013-01-20 16:43:00,
2013-01-20 11:48:00,20.7,2.2,30.21,WNW,292,5.4,15.7,44,0.00,,CLR,0.00,VWS V14.01,2013-01-20 16:48:00,
2013-01-20 11:53:00,20.5,2.5,30.21,WNW,292,4.9,15.7,45,0.00,,CLR,0.00,VWS V14.01,2013-01-20 16:53:00,
2013-01-20 11:58:00,20.3,2.4,30.21,SSW,202,6.5,15.7,45,0.00,,CLR,0.00,VWS V14.01,2013-01-20 16:58:00,
2013-01-20 12:00:00,20.7,3.2,30.21,West,270,3.8,13.0,46,0.00,,CLR,0.00,VWS V14.01,2013-01-20 17:00:00,
2013-01-20 12:03:00,20.3,3.8,30.21,WNW,292,5.6,15.7,48,0.00,,CLR,0.00,VWS V14.01,2013-01-20 17:03:00,
2013-01-20 12:08:00,20.3,3.3,30.21,NW,315,3.1,4.0,47,0.00,,CLR,0.00,VWS V14.01,2013-01-20 17:08:00,
2013-01-20 12:13:00,20.3,5.1,30.21,NNW,338,9.0,9.6,51,0.00,,CLR,0.00,VWS V14.01,2013-01-20 17:13:00,
2013-01-20 12:18:00,19.9,3.9,30.21,NW,315,6.3,13.0,49,0.00,,CLR,0.00,VWS V14.01,2013-01-20 17:18:00,
2013-01-20 12:23:00,20.1,2.7,30.21,WNW,292,4.7,13.0,46,0.00,,CLR,0.00,VWS V14.01,2013-01-20 17:23:00,
2013-01-20 12:28:00,20.5,2.0,30.21,NW,315,7.6,13.0,44,0.00,,CLR,0.00,VWS V14.01,2013-01-20 17:28:00,
2013-01-20 12:33:00,20.7,2.2,30.21,WSW,248,7.8,13.0,44,0.00,,CLR,0.00,VWS V14.01,2013-01-20 17:33:00,
2013-01-20 12:38:00,21.0,2.5,30.21,WNW,292,7.6,13.0,44,0.00,,CLR,0.00,VWS V14.01,2013-01-20 17:38:00,
2013-01-20 12:43:00,21.4,1.9,30.21,WSW,248,3.8,13.0,42,0.00,,CLR,0.00,VWS V14.01,2013-01-20 17:43:00,
2013-01-20 12:48:00,21.4,1.9,30.21,SW,225,3.6,13.0,42,0.00,,CLR,0.00,VWS V14.01,2013-01-20 17:48:00,
2013-01-20 12:53:00,21.4,2.4,30.21,WSW,248,3.6,13.0,43,0.00,,CLR,0.00,VWS V14.01,2013-01-20 17:53:00,
2013-01-20 12:58:00,21.2,2.2,30.21,NW,315,12.3,13.0,43,0.00,,CLR,0.00,VWS V14.01,2013-01-20 17:58:00,
2013-01-20 13:03:00,20.7,2.7,30.21,West,270,7.8,13.0,45,0.00,,CLR,0.00,VWS V14.01,2013-01-20 18:03:00,
2013-01-20 13:08:00,20.3,3.8,30.21,NW,315,8.5,8.5,48,0.00,,CLR,0.00,VWS V14.01,2013-01-20 18:08:00,
2013-01-20 13:14:00,20.3,2.4,30.21,West,270,4.3,13.0,45,0.00,,CLR,0.00,VWS V14.01,2013-01-20 18:14:00,
2013-01-20 13:19:00,20.5,2.5,30.21,West,270,3.6,13.0,45,0.00,,CLR,0.00,VWS V14.01,2013-01-20 18:19:00,
2013-01-20 13:24:00,20.5,2.0,30.21,WSW,248,8.5,13.0,44,0.00,,CLR,0.00,VWS V14.01,2013-01-20 18:24:00,
2013-01-20 13:29:00,20.5,2.5,30.21,WNW,292,4.0,13.0,45,0.00,,CLR,0.00,VWS V14.01,2013-01-20 18:29:00,
2013-01-20 13:34:00,20.7,2.7,30.21,NW,315,3.4,13.0,45,0.00,,CLR,0.00,VWS V14.01,2013-01-20 18:34:00,
2013-01-20 13:39:00,20.7,2.2,30.21,West,270,4.7,13.0,44,0.00,,CLR,0.00,VWS V14.01,2013-01-20 18:39:00,
2013-01-20 13:44:00,20.5,2.0,30.21,WSW,248,6.0,13.0,44,0.00,,CLR,0.00,VWS V14.01,2013-01-20 18:44:00,
2013-01-20 13:49:00,20.7,1.7,30.21,WNW,292,5.6,13.0,43,0.00,,CLR,0.00,VWS V14.01,2013-01-20 18:49:00,
2013-01-20 13:54:00,21.2,2.7,30.21,North,0,4.7,13.0,44,0.00,,CLR,0.00,VWS V14.01,2013-01-20 18:54:00,
2013-01-20 13:59:00,21.0,2.0,30.21,West,270,4.9,13.0,43,0.00,,CLR,0.00,VWS V14.01,2013-01-20 18:59:00,
2013-01-20 14:00:00,21.2,2.2,30.21,NNW,338,2.9,13.0,43,0.00,,CLR,0.00,VWS V14.01,2013-01-20 19:00:00,
2013-01-20 14:04:00,21.2,2.2,30.18,WNW,292,3.8,13.0,43,0.00,,CLR,0.00,VWS V14.01,2013-01-20 19:04:00,
2013-01-20 14:09:00,21.0,2.0,30.18,West,270,6.5,13.0,43,0.00,,CLR,0.00,VWS V14.01,2013-01-20 19:09:00,
2013-01-20 14:14:00,21.0,2.0,30.18,WNW,292,7.2,13.0,43,0.00,,CLR,0.00,VWS V14.01,2013-01-20 19:14:00,
2013-01-20 14:19:00,21.4,1.9,30.21,WNW,292,6.3,13.0,42,0.00,,CLR,0.00,VWS V14.01,2013-01-20 19:19:00,
2013-01-20 14:24:00,21.6,2.0,30.21,WNW,292,4.3,13.0,42,0.00,,CLR,0.00,VWS V14.01,2013-01-20 19:24:00,
2013-01-20 14:29:00,21.4,1.9,30.21,WNW,292,4.3,13.0,42,0.00,,CLR,0.00,VWS V14.01,2013-01-20 19:29:00,
2013-01-20 14:34:00,21.4,1.4,30.21,WNW,292,5.8,13.0,41,0.00,,CLR,0.00,VWS V14.01,2013-01-20 19:34:00,
2013-01-20 14:39:00,21.6,1.0,30.21,WSW,248,5.8,13.0,40,0.00,,CLR,0.00,VWS V14.01,2013-01-20 19:39:00,
2013-01-20 14:44:00,21.9,0.8,30.21,NNW,338,6.0,13.0,39,0.00,,CLR,0.00,VWS V14.01,2013-01-20 19:44:00,
2013-01-20 14:49:00,21.7,0.6,30.21,SW,225,4.9,13.0,39,0.00,,CLR,0.00,VWS V14.01,2013-01-20 19:49:00,
2013-01-20 14:54:00,21.6,1.0,30.21,West,270,4.9,13.0,40,0.00,,CLR,0.00,VWS V14.01,2013-01-20 19:54:00,
2013-01-20 14:59:00,21.4,1.4,30.21,WNW,292,4.9,13.0,41,0.00,,CLR,0.00,VWS V14.01,2013-01-20 19:59:00,
2013-01-20 15:04:00,21.2,2.2,30.21,NW,315,6.5,13.0,43,0.00,,CLR,0.00,VWS V14.01,2013-01-20 20:04:00,
2013-01-20 15:09:00,21.7,2.7,30.21,NNW,338,5.8,8.7,43,0.00,,CLR,0.00,VWS V14.01,2013-01-20 20:09:00,
2013-01-20 15:14:00,21.9,1.3,30.21,WNW,292,11.0,11.0,40,0.00,,CLR,0.00,VWS V14.01,2013-01-20 20:14:00,
2013-01-20 15:20:00,21.6,0.4,30.18,WSW,248,5.4,11.0,39,0.00,,CLR,0.00,VWS V14.01,2013-01-20 20:20:00,
2013-01-20 15:25:00,20.8,0.3,30.18,WNW,292,5.8,11.0,40,0.00,,CLR,0.00,VWS V14.01,2013-01-20 20:25:00,
2013-01-20 15:30:00,20.3,0.4,30.18,NNW,338,6.0,11.0,41,0.00,,CLR,0.00,VWS V14.01,2013-01-20 20:30:00,
2013-01-20 15:35:00,20.8,1.4,30.21,NW,315,3.4,11.0,42,0.00,,CLR,0.00,VWS V14.01,2013-01-20 20:35:00,
2013-01-20 15:40:00,21.2,1.2,30.21,NNW,338,3.8,11.0,41,0.00,,CLR,0.00,VWS V14.01,2013-01-20 20:40:00,
2013-01-20 15:45:00,20.8,1.4,30.21,NW,315,9.0,11.0,42,0.00,,CLR,0.00,VWS V14.01,2013-01-20 20:45:00,
2013-01-20 15:50:00,20.5,1.5,30.21,NW,315,3.8,11.0,43,0.00,,CLR,0.00,VWS V14.01,2013-01-20 20:50:00,
2013-01-20 15:55:00,20.5,1.5,30.21,NW,315,4.9,11.0,43,0.00,,CLR,0.00,VWS V14.01,2013-01-20 20:55:00,
2013-01-20 16:00:00,20.3,1.4,30.21,West,270,3.4,11.0,43,0.00,,CLR,0.00,VWS V14.01,2013-01-20 21:00:00,
2013-01-20 16:05:00,20.5,1.5,30.21,SSW,202,3.8,11.0,43,0.00,,CLR,0.00,VWS V14.01,2013-01-20 21:05:00,
2013-01-20 16:10:00,21.0,2.0,30.21,NW,315,6.5,11.0,43,0.00,,CLR,0.00,VWS V14.01,2013-01-20 21:10:00,
2013-01-20 16:15:00,20.7,-0.4,30.21,WSW,248,4.0,11.0,39,0.00,,CLR,0.00,VWS V14.01,2013-01-20 21:15:00,
2013-01-20 16:21:00,20.3,0.9,30.21,WNW,292,4.0,11.0,42,0.00,,CLR,0.00,VWS V14.01,2013-01-20 21:21:00,
2013-01-20 16:26:00,20.5,1.5,30.21,West,270,5.8,11.0,43,0.00,,CLR,0.00,VWS V14.01,2013-01-20 21:26:00,
2013-01-20 16:31:00,21.0,1.0,30.18,NW,315,7.4,12.3,41,0.00,,CLR,0.00,VWS V14.01,2013-01-20 21:31:00,
2013-01-20 16:36:00,20.8,0.9,30.18,NW,315,7.4,12.3,41,0.00,,CLR,0.00,VWS V14.01,2013-01-20 21:36:00,
2013-01-20 16:41:00,20.1,-0.3,30.18,NNW,338,5.4,12.3,40,0.00,,CLR,0.00,VWS V14.01,2013-01-20 21:41:00,
2013-01-20 16:46:00,19.8,-0.1,30.18,WNW,292,4.3,12.3,41,0.00,,CLR,0.00,VWS V14.01,2013-01-20 21:46:00,
2013-01-20 16:51:00,19.6,0.2,30.21,NNW,338,6.5,12.3,42,0.00,,CLR,0.00,VWS V14.01,2013-01-20 21:51:00,
2013-01-20 16:57:00,19.2,0.4,30.21,West,270,3.4,12.3,43,0.00,,CLR,0.00,VWS V14.01,2013-01-20 21:57:00,
2013-01-20 17:00:00,17.4,0.2,30.24,West,270,3.8,8.5,46,0.00,,CLR,0.00,VWS V14.01,2013-01-20 22:00:00,
2013-01-20 17:02:00,18.9,0.1,30.21,WNW,292,4.3,12.3,43,0.00,,CLR,0.00,VWS V14.01,2013-01-20 22:02:00,
2013-01-20 17:08:00,18.5,-0.3,30.21,WNW,292,2.7,4.9,43,0.00,,CLR,0.00,VWS V14.01,2013-01-20 22:08:00,
2013-01-20 17:13:00,18.3,0.1,30.21,NW,315,2.7,4.9,44,0.00,,CLR,0.00,VWS V14.01,2013-01-20 22:13:00,
2013-01-20 17:18:00,18.1,0.4,30.21,WNW,292,4.0,7.4,45,0.00,,CLR,0.00,VWS V14.01,2013-01-20 22:18:00,
2013-01-20 17:23:00,18.1,0.4,30.21,West,270,4.0,8.5,45,0.00,,CLR,0.00,VWS V14.01,2013-01-20 22:23:00,
2013-01-20 17:28:00,17.8,0.5,30.21,West,270,4.3,8.5,46,0.00,,CLR,0.00,VWS V14.01,2013-01-20 22:28:00,
2013-01-20 17:33:00,17.8,0.5,30.21,WSW,248,3.6,8.5,46,0.00,,CLR,0.00,VWS V14.01,2013-01-20 22:33:00,
2013-01-20 17:38:00,17.8,0.5,30.21,WNW,292,4.0,8.5,46,0.00,,CLR,0.00,VWS V14.01,2013-01-20 22:38:00,
2013-01-20 17:43:00,17.8,0.1,30.21,NW,315,4.0,8.5,45,0.00,,CLR,0.00,VWS V14.01,2013-01-20 22:43:00,
2013-01-20 17:48:00,17.6,-0.1,30.21,WNW,292,5.4,8.5,45,0.00,,CLR,0.00,VWS V14.01,2013-01-20 22:48:00,
2013-01-20 17:54:00,17.8,0.5,30.21,WSW,248,3.8,8.5,46,0.00,,CLR,0.00,VWS V14.01,2013-01-20 22:54:00,
2013-01-20 17:59:00,17.6,0.3,30.21,West,270,4.0,8.5,46,0.00,,CLR,0.00,VWS V14.01,2013-01-20 22:59:00,
2013-01-20 18:04:00,17.4,0.2,30.24,NW,315,3.6,8.5,46,0.00,,CLR,0.00,VWS V14.01,2013-01-20 23:04:00,
2013-01-20 18:09:00,17.4,0.6,30.24,WNW,292,2.7,4.7,47,0.00,,CLR,0.00,VWS V14.01,2013-01-20 23:09:00,
2013-01-20 18:14:00,17.4,-0.3,30.24,NNW,338,7.8,7.8,45,0.00,,CLR,0.00,VWS V14.01,2013-01-20 23:14:00,
2013-01-20 18:19:00,17.1,-0.1,30.24,West,270,2.2,7.8,46,0.00,,CLR,0.00,VWS V14.01,2013-01-20 23:19:00,
2013-01-20 18:24:00,16.9,-0.8,30.24,WNW,292,5.4,9.8,45,0.00,,CLR,0.00,VWS V14.01,2013-01-20 23:24:00,
2013-01-20 18:29:00,16.7,-0.9,30.24,NW,315,4.3,9.8,45,0.00,,CLR,0.00,VWS V14.01,2013-01-20 23:29:00,
2013-01-20 18:34:00,16.3,-1.3,30.24,West,270,5.6,9.8,45,0.00,,CLR,0.00,VWS V14.01,2013-01-20 23:34:00,
2013-01-20 18:40:00,16.2,-1.4,30.24,WSW,248,3.6,12.1,45,0.00,,CLR,0.00,VWS V14.01,2013-01-20 23:40:00,
2013-01-20 18:45:00,16.2,-1.0,30.24,WSW,248,3.8,12.1,46,0.00,,CLR,0.00,VWS V14.01,2013-01-20 23:45:00,
2013-01-20 18:50:00,16.0,-1.1,30.24,NW,315,4.0,12.1,46,0.00,,CLR,0.00,VWS V14.01,2013-01-20 23:50:00,
2013-01-20 18:55:00,16.0,-0.7,30.24,WNW,292,3.6,12.1,47,0.00,,CLR,0.00,VWS V14.01,2013-01-20 23:55:00,
2013-01-20 19:00:00,15.8,-0.9,30.24,WNW,292,3.8,12.1,47,0.00,,CLR,0.00,VWS V14.01,2013-01-21 00:00:00,
2013-01-20 19:05:00,15.6,-0.6,30.24,West,270,6.3,12.1,48,0.00,,CLR,0.00,VWS V14.01,2013-01-21 00:05:00,
2013-01-20 19:10:00,15.8,-0.4,30.24,NW,315,3.1,12.1,48,0.00,,CLR,0.00,VWS V14.01,2013-01-21 00:10:00,
2013-01-20 19:15:00,15.6,-0.6,30.24,WNW,292,3.1,12.1,48,0.00,,CLR,0.00,VWS V14.01,2013-01-21 00:15:00,
2013-01-20 19:20:00,15.4,-0.7,30.24,NNW,338,4.3,12.1,48,0.00,,CLR,0.00,VWS V14.01,2013-01-21 00:20:00,
2013-01-20 19:25:00,15.4,-1.2,30.24,WNW,292,3.4,12.1,47,0.00,,CLR,0.00,VWS V14.01,2013-01-21 00:25:00,
2013-01-20 19:31:00,15.4,-1.2,30.24,NW,315,3.8,12.1,47,0.00,,CLR,0.00,VWS V14.01,2013-01-21 00:31:00,
2013-01-20 19:36:00,15.4,-1.2,30.24,West,270,3.6,12.1,47,0.00,,CLR,0.00,VWS V14.01,2013-01-21 00:36:00,
2013-01-20 19:41:00,15.3,-1.3,30.24,West,270,4.3,12.1,47,0.00,,CLR,0.00,VWS V14.01,2013-01-21 00:41:00,
2013-01-20 19:46:00,15.1,-1.1,30.27,NW,315,4.9,12.1,48,0.00,,CLR,0.00,VWS V14.01,2013-01-21 00:46:00,
2013-01-20 19:51:00,14.9,-1.2,30.27,WNW,292,3.1,12.1,48,0.00,,CLR,0.00,VWS V14.01,2013-01-21 00:51:00,
2013-01-20 19:56:00,14.7,-1.4,30.27,WNW,292,2.9,12.1,48,0.00,,CLR,0.00,VWS V14.01,2013-01-21 00:56:00,
2013-01-20 20:00:00,14.5,-1.6,30.24,West,270,3.8,8.1,48,0.00,,CLR,0.00,VWS V14.01,2013-01-21 01:00:00,
2013-01-20 20:01:00,14.7,-1.4,30.24,NW,315,3.6,12.1,48,0.00,,CLR,0.00,VWS V14.01,2013-01-21 01:01:00,
2013-01-20 20:07:00,14.4,-2.2,30.24,NW,315,4.0,12.1,47,0.00,,CLR,0.00,VWS V14.01,2013-01-21 01:07:00,
2013-01-20 20:12:00,14.4,-2.2,30.24,WNW,292,2.2,8.1,47,0.00,,CLR,0.00,VWS V14.01,2013-01-21 01:12:00,
2013-01-20 20:17:00,14.4,-1.7,30.24,WNW,292,3.4,8.1,48,0.00,,CLR,0.00,VWS V14.01,2013-01-21 01:17:00,
2013-01-20 20:22:00,14.2,-1.9,30.24,WNW,292,3.6,8.1,48,0.00,,CLR,0.00,VWS V14.01,2013-01-21 01:22:00,
2013-01-20 20:28:00,14.2,-1.5,30.24,WNW,292,4.3,8.1,49,0.00,,CLR,0.00,VWS V14.01,2013-01-21 01:28:00,
2013-01-20 20:33:00,14.2,-1.5,30.24,NNW,338,3.8,8.1,49,0.00,,CLR,0.00,VWS V14.01,2013-01-21 01:33:00,
2013-01-20 20:38:00,14.4,-2.2,30.24,WSW,248,3.4,8.1,47,0.00,,CLR,0.00,VWS V14.01,2013-01-21 01:38:00,
2013-01-20 20:43:00,14.4,-2.2,30.24,WNW,292,4.0,8.1,47,0.00,,CLR,0.00,VWS V14.01,2013-01-21 01:43:00,
2013-01-20 20:49:00,14.2,-2.3,30.24,WNW,292,2.9,8.1,47,0.00,,CLR,0.00,VWS V14.01,2013-01-21 01:49:00,
2013-01-20 20:54:00,14.4,-2.2,30.24,NW,315,3.6,8.1,47,0.00,,CLR,0.00,VWS V14.01,2013-01-21 01:54:00,
2013-01-20 20:59:00,14.4,-1.7,30.24,NNW,338,4.0,8.1,48,0.00,,CLR,0.00,VWS V14.01,2013-01-21 01:59:00,
2013-01-20 21:00:00,12.9,-3.5,30.24,West,270,3.4,7.6,47,0.00,,CLR,0.00,VWS V14.01,2013-01-21 02:00:00,
2013-01-20 21:04:00,14.5,-1.6,30.24,West,270,4.0,8.1,48,0.00,,CLR,0.00,VWS V14.01,2013-01-21 02:04:00,
2013-01-20 21:09:00,14.5,-1.6,30.24,WNW,292,2.5,5.4,48,0.00,,CLR,0.00,VWS V14.01,2013-01-21 02:09:00,
2013-01-20 21:14:00,14.5,-1.6,30.24,West,270,4.0,7.4,48,0.00,,CLR,0.00,VWS V14.01,2013-01-21 02:14:00,
2013-01-20 21:19:00,14.5,-1.1,30.24,SW,225,4.9,7.4,49,0.00,,CLR,0.00,VWS V14.01,2013-01-21 02:19:00,
2013-01-20 21:24:00,14.7,-1.0,30.24,NNW,338,3.6,7.6,49,0.00,,CLR,0.00,VWS V14.01,2013-01-21 02:24:00,
2013-01-20 21:29:00,14.5,-1.1,30.24,WNW,292,3.6,7.6,49,0.00,,CLR,0.00,VWS V14.01,2013-01-21 02:29:00,
2013-01-20 21:35:00,14.5,-1.1,30.24,NNW,338,5.4,7.6,49,0.00,,CLR,0.00,VWS V14.01,2013-01-21 02:35:00,
2013-01-20 21:40:00,14.5,-1.1,30.24,NW,315,3.6,7.6,49,0.00,,CLR,0.00,VWS V14.01,2013-01-21 02:40:00,
2013-01-20 21:45:00,14.4,-2.2,30.24,West,270,4.3,7.6,47,0.00,,CLR,0.00,VWS V14.01,2013-01-21 02:45:00,
2013-01-20 21:50:00,14.0,-2.5,30.24,WNW,292,4.9,7.6,47,0.00,,CLR,0.00,VWS V14.01,2013-01-21 02:50:00,
2013-01-20 21:55:00,13.6,-2.8,30.24,WNW,292,2.0,7.6,47,0.00,,CLR,0.00,VWS V14.01,2013-01-21 02:55:00,
2013-01-20 22:00:00,13.5,-3.0,30.24,WNW,292,2.9,7.6,47,0.00,,CLR,0.00,VWS V14.01,2013-01-21 03:00:00,
2013-01-20 22:05:00,13.1,-3.3,30.24,NW,315,4.0,7.6,47,0.00,,CLR,0.00,VWS V14.01,2013-01-21 03:05:00,
2013-01-20 22:10:00,12.9,-3.5,30.24,NW,315,3.6,3.8,47,0.00,,CLR,0.00,VWS V14.01,2013-01-21 03:10:00,
2013-01-20 22:15:00,12.7,-3.7,30.24,West,270,3.4,6.0,47,0.00,,CLR,0.00,VWS V14.01,2013-01-21 03:15:00,
2013-01-20 22:20:00,12.7,-3.7,30.24,WNW,292,3.8,9.4,47,0.00,,CLR,0.00,VWS V14.01,2013-01-21 03:20:00,
2013-01-20 22:25:00,12.7,-3.7,30.24,WNW,292,1.6,9.4,47,0.00,,CLR,0.00,VWS V14.01,2013-01-21 03:25:00,
2013-01-20 22:30:00,12.4,-4.0,30.24,WNW,292,2.0,9.4,47,0.00,,CLR,0.00,VWS V14.01,2013-01-21 03:30:00,
2013-01-20 22:35:00,12.2,-4.2,30.24,West,270,0.9,9.4,47,0.00,,CLR,0.00,VWS V14.01,2013-01-21 03:35:00,
2013-01-20 22:41:00,12.0,-4.3,30.24,West,270,3.8,9.4,47,0.00,,CLR,0.00,VWS V14.01,2013-01-21 03:41:00,
2013-01-20 22:46:00,12.0,-4.3,30.24,West,270,2.2,9.4,47,0.00,,CLR,0.00,VWS V14.01,2013-01-21 03:46:00,
2013-01-20 22:51:00,12.0,-4.3,30.24,West,270,4.3,9.4,47,0.00,,CLR,0.00,VWS V14.01,2013-01-21 03:51:00,
2013-01-20 22:57:00,12.0,-4.3,30.24,West,270,1.6,9.4,47,0.00,,CLR,0.00,VWS V14.01,2013-01-21 03:57:00,
2013-01-20 23:00:00,12.9,-3.5,30.21,NW,315,3.1,7.4,47,0.00,,CLR,0.00,VWS V14.01,2013-01-21 04:00:00,
2013-01-20 23:02:00,12.0,-4.3,30.24,West,270,4.7,9.4,47,0.00,,CLR,0.00,VWS V14.01,2013-01-21 04:02:00,
2013-01-20 23:07:00,12.0,-4.3,30.24,WNW,292,2.2,3.1,47,0.00,,CLR,0.00,VWS V14.01,2013-01-21 04:07:00,
2013-01-20 23:12:00,12.0,-4.3,30.24,SSW,202,3.1,3.8,47,0.00,,CLR,0.00,VWS V14.01,2013-01-21 04:12:00,
2013-01-20 23:17:00,12.0,-4.3,30.24,WNW,292,1.3,3.8,47,0.00,,CLR,0.00,VWS V14.01,2013-01-21 04:17:00,
2013-01-20 23:23:00,12.0,-4.3,30.24,NW,315,0.0,3.8,47,0.00,,CLR,0.00,VWS V14.01,2013-01-21 04:23:00,
2013-01-20 23:28:00,12.0,-4.3,30.24,West,270,2.2,4.3,47,0.00,,CLR,0.00,VWS V14.01,2013-01-21 04:28:00,
2013-01-20 23:33:00,12.2,-4.2,30.24,WNW,292,2.0,4.3,47,0.00,,CLR,0.00,VWS V14.01,2013-01-21 04:33:00,
2013-01-20 23:38:00,12.6,-3.8,30.24,WNW,292,1.3,4.3,47,0.00,,CLR,0.00,VWS V14.01,2013-01-21 04:38:00,
2013-01-20 23:43:00,12.7,-3.7,30.24,NW,315,1.6,4.3,47,0.00,,CLR,0.00,VWS V14.01,2013-01-21 04:43:00,
2013-01-20 23:48:00,12.9,-3.5,30.24,WNW,292,2.5,6.5,47,0.00,,CLR,0.00,VWS V14.01,2013-01-21 04:48:00,
2013-01-20 23:54:00,13.1,-3.3,30.24,NNW,338,7.4,7.4,47,0.00,,CLR,0.00,VWS V14.01,2013-01-21 04:54:00,
2013-01-20 23:59:00,12.9,-3.5,30.24,NNW,338,5.6,7.4,47,0.00,,CLR,0.00,VWS V14.01,2013-01-21 04:59:00,